Phoenix, AZ

8:58 PM MST on August 25, 2016 (GMT -0700)
Phoenix-Deer Valley Municipal

Weather History for KDVT - July, 2013

Change the Weather History Date:

Sunday, July 28, 2013

  Actual Average Record
Temperature  
Mean Temperature 93 °F -  
Max Temperature 102 °F 101 °F 111 °F (2000)
Min Temperature 84 °F 81 °F 75 °F (2012)
Cooling Degree Days 28    
Growing Degree Days 43 (Base 50)    
Moisture  
Dew Point 56 °F    
Average Humidity 30    
Maximum Humidity 53    
Minimum Humidity 15    
Precipitation  
Precipitation 0.00 in - - ()
Sea Level Pressure  
Sea Level Pressure 29.70 in    
Wind  
Wind Speed 6 mph (SSW)    
Max Wind Speed 16 mph    
Max Gust Speed 25 mph    
Visibility 10 miles    
Events      
Averages and records for this station are not official NWS values.
T = Trace of Precipitation, MM = Missing Value Source: NWS Daily Summary

Daily Weather History Graph

Daily Weather History Graph

Search for Another Location

Airport or City:

Trip Planner

Search our weather history database for the weather conditions in past years. The results will help you decide how hot, cold, wet, or windy it might be!

Date:

Astronomy

Jul. 28, 2013 Rise Set
Actual Time 5:37 AM MST 7:31 PM MST
Civil Twilight 5:10 AM MST 7:58 PM MST
Nautical Twilight 4:36 AM MST 8:32 PM MST
Astronomical Twilight 4:01 AM MST 9:07 PM MST
Moon 11:18 PM MST (7/28) 12:01 PM MST (7/28)
Length of Visible Light 14h 48m
Length of Day
13h 53m
Waning Gibbous, 60% of the Moon is Illuminated
Jul 28
Waning Gibbous
Jul 29
Last Quarter
Aug 6
New
Aug 14
First Quarter
Aug 20
Full

Hourly Weather History & Observations

Time (MST) Temp. Heat Index Dew Point Humidity Pressure Visibility Wind Dir Wind Speed Gust Speed Precip Events Conditions
12:53 AM 89.1 °F 90.3 °F 64.0 °F 43% 29.71 in 10.0 mi North 3.5 mph - N/A   Clear
1:53 AM 88.0 °F 89.3 °F 64.0 °F 45% 29.71 in 10.0 mi Calm Calm - N/A   Clear
2:53 AM 88.0 °F 89.3 °F 64.0 °F 45% 29.72 in 10.0 mi Variable 3.5 mph - N/A   Clear
3:53 AM 86.0 °F 87.3 °F 64.0 °F 48% 29.72 in 10.0 mi East 5.8 mph - N/A   Partly Cloudy
4:53 AM 84.9 °F 86.1 °F 64.0 °F 49% 29.72 in 10.0 mi East 6.9 mph - N/A   Mostly Cloudy
5:53 AM 84.0 °F 85.8 °F 64.9 °F 53% 29.73 in 10.0 mi East 4.6 mph - N/A   Partly Cloudy
6:53 AM 86.0 °F 87.6 °F 64.9 °F 49% 29.74 in 10.0 mi East 3.5 mph - N/A   Partly Cloudy
7:53 AM 89.1 °F 90.3 °F 64.0 °F 43% 29.75 in 10.0 mi ESE 8.1 mph - N/A   Clear
8:53 AM 91.9 °F 92.5 °F 62.1 °F 37% 29.75 in 10.0 mi SE 6.9 mph - N/A   Clear
9:53 AM 93.0 °F 92.3 °F 59.0 °F 32% 29.76 in 10.0 mi Calm Calm - N/A   Clear
10:53 AM 95.0 °F 94.4 °F 59.0 °F 30% 29.75 in 10.0 mi Variable 3.5 mph - N/A   Clear
11:53 AM 98.1 °F 96.8 °F 57.0 °F 25% 29.74 in 10.0 mi East 4.6 mph - N/A   Clear
12:53 PM 100.0 °F 98.8 °F 55.9 °F 23% 29.72 in 10.0 mi SW 8.1 mph - N/A   Clear
1:53 PM 100.9 °F 99.1 °F 54.0 °F 21% 29.69 in 10.0 mi SW 9.2 mph - N/A   Clear
2:53 PM 102.0 °F - 51.1 °F 18% 29.67 in 10.0 mi SSW 11.5 mph 25.3 mph N/A   Clear
3:53 PM 102.9 °F - 48.9 °F 16% 29.65 in 10.0 mi WSW 9.2 mph - N/A   Clear
4:53 PM 102.9 °F - 46.9 °F 15% 29.64 in 10.0 mi SW 16.1 mph - N/A   Clear
5:53 PM 102.9 °F - 48.0 °F 16% 29.63 in 10.0 mi West 15.0 mph - N/A   Clear
6:53 PM 100.9 °F - 48.0 °F 17% 29.63 in 10.0 mi West 11.5 mph - N/A   Clear
7:53 PM 99.0 °F - 48.0 °F 18% 29.65 in 10.0 mi WSW 8.1 mph - N/A   Clear
8:53 PM 98.1 °F - 48.9 °F 19% 29.66 in 10.0 mi SW 5.8 mph - N/A   Clear
9:53 PM 95.0 °F - 48.0 °F 20% 29.69 in 10.0 mi SW 8.1 mph - N/A   Clear
10:53 PM 93.0 °F - 46.9 °F 20% 29.70 in 10.0 mi SSW 6.9 mph - N/A   Clear
11:53 PM 91.9 °F - 48.9 °F 23% 29.71 in 10.0 mi WSW 5.8 mph - N/A   Clear